Weather History for Waskish, MN

Change the Weather History Date:

Monday, January 7, 2013

  Actual Average (KBDE) Record (KBDE)
Temperature  
Mean Temperature 24 °F -  
Max Temperature 32 °F 9 °F 46 °F (2003)
Min Temperature 17 °F -13 °F -41 °F (1973)
Degree Days  
Heating Degree Days 40    
Moisture  
Dew Point 22 °F    
Average Humidity 84    
Maximum Humidity 93    
Minimum Humidity 80    
Precipitation  
Precipitation 0.00 in - - ()
Sea Level Pressure  
Sea Level Pressure 29.69 in    
Wind  
Wind Speed 12 mph (SW)    
Max Wind Speed 22 mph    
Max Gust Speed 29 mph    
Visibility 10 miles    
Events      
Averages and records for this station are not official NWS values.
T = Trace of Precipitation, MM = Missing Value Source: NWS Daily Summary

Daily Weather History Graph

Daily Weather History Graph

Search for Another Location

Airport:

Trip Planner

Search our weather history database for the weather conditions in past years. The results will help you decide how hot, cold, wet, or windy it might be!

Date:

Astronomy

Jan. 07, 2013 Rise Set
Actual Time 8:07 AM CST 4:41 PM CST
Civil Twilight 7:31 AM CST 5:17 PM CST
Nautical Twilight 6:52 AM CST 5:57 PM CST
Astronomical Twilight 6:14 AM CST 6:34 PM CST
Moon 3:26 AM CST (1/7) 12:57 PM CST (1/7)
Length of Visible Light 9h 46m
Length of Day
8h 34m
Waning Crescent, 22% of the Moon is Illuminated
Jan 7
Waning Crescent
Jan 11
New
Jan 18
First Quarter
Jan 26
Full
Feb 3
Last Quarter

Hourly Weather History & Observations

Time (CST) Temp. Windchill Dew Point Humidity Pressure Visibility Wind Dir Wind Speed Gust Speed Precip Events Conditions
12:05 AM 19.4 °F 6.6 °F 17.6 °F 93% 29.71 in 10.0 mi SSE 12.7 mph 25.3 mph N/A   Clear
12:25 AM 19.4 °F 8.6 °F 15.8 °F 86% 29.70 in 10.0 mi South 9.2 mph - N/A   Scattered Clouds
12:45 AM 19.4 °F 7.9 °F 15.8 °F 86% 29.68 in 10.0 mi South 10.4 mph 19.6 mph N/A   Clear
1:05 AM 19.4 °F 7.2 °F 15.8 °F 86% 29.69 in 10.0 mi South 11.5 mph 16.1 mph N/A   Clear
1:25 AM 19.4 °F 9.5 °F 15.8 °F 86% 29.67 in 10.0 mi South 8.1 mph 17.3 mph N/A   Clear
1:45 AM 19.4 °F 7.9 °F 15.8 °F 86% 29.68 in 10.0 mi South 10.4 mph 17.3 mph N/A   Clear
2:05 AM 19.4 °F 10.4 °F 15.8 °F 86% 29.67 in 10.0 mi South 6.9 mph 16.1 mph N/A   Clear
2:25 AM 19.4 °F 6.6 °F 15.8 °F 86% 29.66 in 10.0 mi South 12.7 mph 21.9 mph N/A   Scattered Clouds
2:45 AM 19.4 °F 10.4 °F 15.8 °F 86% 29.65 in 10.0 mi South 6.9 mph - N/A   Scattered Clouds
3:05 AM 19.4 °F 8.6 °F 15.8 °F 86% 29.64 in 10.0 mi South 9.2 mph 17.3 mph N/A   Scattered Clouds
3:25 AM 17.6 °F 7.3 °F 15.8 °F 93% 29.65 in 10.0 mi SSW 8.1 mph - N/A   Scattered Clouds
3:45 AM 17.6 °F 8.2 °F 15.8 °F 93% 29.63 in 10.0 mi South 6.9 mph - N/A   Clear
4:05 AM 19.4 °F 8.6 °F 15.8 °F 86% 29.63 in 10.0 mi South 9.2 mph - N/A   Clear
4:25 AM 19.4 °F 7.9 °F 15.8 °F 86% 29.60 in 10.0 mi South 10.4 mph - N/A   Clear
4:45 AM 19.4 °F 8.6 °F 15.8 °F 86% 29.61 in 10.0 mi SSW 9.2 mph - N/A   Clear
5:04 AM 19.4 °F 8.6 °F 15.8 °F 86% 29.61 in 10.0 mi South 9.2 mph - N/A   Clear
5:25 AM 19.4 °F 10.4 °F 15.8 °F 86% 29.60 in 10.0 mi South 6.9 mph - N/A   Clear
6:25 AM 21.2 °F 9.5 °F 17.6 °F 86% 29.59 in 10.0 mi SSW 11.5 mph 16.1 mph N/A   Clear
6:45 AM 24.8 °F 14.6 °F 19.4 °F 80% 29.60 in 10.0 mi SSW 10.4 mph - N/A   Clear
7:04 AM 24.8 °F 13.4 °F 19.4 °F 80% 29.60 in 10.0 mi SSW 12.7 mph 17.3 mph N/A   Clear
7:25 AM 24.8 °F 11.9 °F 19.4 °F 80% 29.61 in 10.0 mi SW 16.1 mph 19.6 mph N/A   Clear
7:45 AM 24.8 °F 12.4 °F 19.4 °F 80% 29.61 in 10.0 mi SSW 15.0 mph 21.9 mph N/A   Clear
8:05 AM 24.8 °F 13.4 °F 19.4 °F 80% 29.60 in 10.0 mi SSW 12.7 mph 18.4 mph N/A   Scattered Clouds
8:25 AM 24.8 °F 13.4 °F 19.4 °F 80% 29.62 in 10.0 mi SW 12.7 mph - N/A   Scattered Clouds
8:45 AM 24.8 °F 12.9 °F 19.4 °F 80% 29.61 in 10.0 mi SW 13.8 mph 23.0 mph N/A   Clear
9:05 AM 26.6 °F 15.2 °F 21.2 °F 80% 29.61 in 10.0 mi SW 13.8 mph 19.6 mph N/A   Clear
9:25 AM 26.6 °F 14.3 °F 21.2 °F 80% 29.62 in 10.0 mi SW 16.1 mph 24.2 mph N/A   Clear
9:45 AM 28.4 °F 15.4 °F 23.0 °F 80% 29.63 in 10.0 mi SW 19.6 mph 23.0 mph N/A   Clear
10:05 AM 28.4 °F 15.4 °F 23.0 °F 80% 29.63 in 10.0 mi SW 19.6 mph 26.5 mph N/A   Clear
10:25 AM 30.2 °F 17.4 °F 24.8 °F 80% 29.63 in 10.0 mi SW 20.7 mph 27.6 mph N/A   Clear
10:45 AM 30.2 °F 17.4 °F 24.8 °F 80% 29.63 in 10.0 mi SW 20.7 mph 25.3 mph N/A   Clear
11:05 AM 30.2 °F 18.5 °F 24.8 °F 80% 29.64 in 10.0 mi SW 17.3 mph 23.0 mph N/A   Scattered Clouds
11:25 AM 30.2 °F 17.1 °F 24.8 °F 80% 29.64 in 10.0 mi SW 21.9 mph 28.8 mph N/A   Mostly Cloudy
11:45 AM 30.2 °F 17.8 °F 24.8 °F 80% 29.64 in 10.0 mi SW 19.6 mph 27.6 mph N/A   Overcast
12:05 PM 30.2 °F 18.5 °F 26.6 °F 86% 29.65 in 10.0 mi SW 17.3 mph 23.0 mph N/A   Overcast
12:25 PM 30.2 °F 17.4 °F 26.6 °F 86% 29.64 in 10.0 mi SW 20.7 mph 25.3 mph N/A   Overcast
12:45 PM 30.2 °F 18.1 °F 26.6 °F 86% 29.64 in 10.0 mi WSW 18.4 mph 25.3 mph N/A   Overcast
1:05 PM 30.2 °F 18.5 °F 26.6 °F 86% 29.65 in 10.0 mi SW 17.3 mph 24.2 mph N/A   Overcast
1:25 PM 30.2 °F 18.5 °F 26.6 °F 86% 29.65 in 10.0 mi WSW 17.3 mph 24.2 mph N/A   Overcast
1:45 PM 32.0 °F 20.1 °F 26.6 °F 80% 29.66 in 10.0 mi WSW 19.6 mph 23.0 mph N/A   Overcast
2:05 PM 32.0 °F 20.5 °F 26.6 °F 80% 29.67 in 10.0 mi WSW 18.4 mph 23.0 mph N/A   Overcast
2:25 PM 32.0 °F 20.1 °F 26.6 °F 80% 29.68 in 10.0 mi WSW 19.6 mph 27.6 mph N/A   Overcast
2:45 PM 30.2 °F 19.8 °F 26.6 °F 86% 29.69 in 10.0 mi WSW 13.8 mph - N/A   Overcast
3:05 PM 30.2 °F 20.2 °F 26.6 °F 86% 29.70 in 10.0 mi WSW 12.7 mph 19.6 mph N/A   Overcast
3:25 PM 30.2 °F 19.8 °F 26.6 °F 86% 29.71 in 10.0 mi WSW 13.8 mph 20.7 mph N/A   Overcast
3:45 PM 30.2 °F 20.2 °F 26.6 °F 86% 29.72 in 10.0 mi WSW 12.7 mph 18.4 mph N/A   Overcast
4:05 PM 30.2 °F 20.8 °F 26.6 °F 86% 29.73 in 10.0 mi WSW 11.5 mph - N/A   Overcast
4:24 PM 30.2 °F 20.2 °F 26.6 °F 86% 29.74 in 10.0 mi WSW 12.7 mph - N/A   Overcast
4:45 PM 30.2 °F 19.8 °F 24.8 °F 80% 29.74 in 10.0 mi WSW 13.8 mph - N/A   Overcast
5:05 PM 30.2 °F 19.3 °F 24.8 °F 80% 29.75 in 10.0 mi WSW 15.0 mph - N/A   Overcast
5:25 PM 30.2 °F 19.8 °F 24.8 °F 80% 29.75 in 10.0 mi SW 13.8 mph 18.4 mph N/A   Overcast
6:05 PM 30.2 °F 20.2 °F 24.8 °F 80% 29.77 in 10.0 mi SW 12.7 mph 17.3 mph N/A   Overcast
6:24 PM 28.4 °F 19.7 °F 24.8 °F 86% 29.78 in 10.0 mi SW 9.2 mph - N/A   Overcast
6:45 PM 28.4 °F 18.5 °F 24.8 °F 86% 29.79 in 10.0 mi WSW 11.5 mph - N/A   Overcast
7:05 PM 28.4 °F 19.1 °F 24.8 °F 86% 29.79 in 10.0 mi WSW 10.4 mph - N/A   Overcast
7:24 PM 28.4 °F 19.1 °F 24.8 °F 86% 29.80 in 10.0 mi WSW 10.4 mph - N/A   Overcast
7:45 PM 28.4 °F 20.4 °F 24.8 °F 86% 29.80 in 10.0 mi WSW 8.1 mph - N/A   Overcast
8:05 PM 28.4 °F 20.4 °F 24.8 °F 86% 29.81 in 10.0 mi WSW 8.1 mph - N/A   Overcast
8:24 PM 28.4 °F 19.7 °F 24.8 °F 86% 29.81 in 10.0 mi WSW 9.2 mph - N/A   Overcast
8:45 PM 28.4 °F 20.4 °F 24.8 °F 86% 29.82 in 10.0 mi SW 8.1 mph - N/A   Overcast
9:25 PM 26.6 °F 16.2 °F 24.8 °F 93% 29.83 in 10.0 mi SW 11.5 mph - N/A   Overcast
9:45 PM 26.6 °F 17.5 °F 23.0 °F 86% 29.84 in 10.0 mi SW 9.2 mph - N/A   Overcast
10:05 PM 26.6 °F 17.5 °F 23.0 °F 86% 29.84 in 10.0 mi SW 9.2 mph - N/A   Overcast
10:45 PM 26.6 °F 19.1 °F 23.0 °F 86% 29.84 in 10.0 mi SW 6.9 mph - N/A   Overcast
11:05 PM 26.6 °F 18.2 °F 23.0 °F 86% 29.84 in 10.0 mi SSW 8.1 mph - N/A   Overcast
11:25 PM 26.6 °F 19.1 °F 21.2 °F 80% 29.84 in 10.0 mi SSW 6.9 mph - N/A   Overcast
11:45 PM 26.6 °F 17.5 °F 21.2 °F 80% 29.84 in 10.0 mi SW 9.2 mph - N/A   Overcast